User: anonymous   Login
Location: Henham
(51.9333°N, 0.2500°E)
Time: 05:03:58
(UTC+00:00)
Language:

Lacrosse 5 - Orbit

View from above orbital plane
View from above orbital plane
View from above satellite
View from above satellite

Ground track
Ground track

The orbit data is extracted from the following two-line orbital elements,

1 28646U 05016A   19338.19031526 0.00000000  00000-0  00000-0 0    02
2 28646  57.0151   8.2509 0005967 156.9832 203.0168 14.51894001    05
Epoch (UTC): 04 December 2019 04:34:03
Eccentricity: 0.0005967
inclination: 57.0151°
perigee height: 715 km
apogee height: 724 km
right ascension of ascending node: 8.2509°
argument of perigee: 156.9832°
revolutions per day: 14.51894001
mean anomaly at epoch: 203.0168°
orbit number at epoch: 0

The dashed part of the orbit path shows where the satellite is in the earth's shadow,  

DLR